sat.trackr.live / text

‹ back to catalog

STARLINK-5820

NORAD 55781 · 2023-028AS

PAYLOAD ACTIVE UNKNOWN

§ Identity

Operator
Country
US
Launch date
2023-03-03
Launch site
AFWTR
Launch vehicle
Mass (kg)
RCS (m²)

Purposes: comms

External: N2YO · Heavens-Above · Gunter

§ Orbital elements

Epoch: 2026-05-25T02:49:41.484000Z

Period
96.11 min
Inclination
70.0004°
Eccentricity
0.0002500
Mean motion
14.98333792 rev/d
Perigee alt
570.3 km
Apogee alt
573.8 km
Semi-major
6,950.2 km
B*
4.7415e-6
RAAN
31.6967°
Arg perigee
270.7228°
Mean anomaly
89.3645°
Rev number
17,798

§ Raw data

STARLINK-58201 55781U 23028AS  26145.11784125 -.00000036  00000+0  47415-5 0  99932 55781  70.0004  31.6967 0002500 270.7228  89.3645 14.98333792177982

JSON: /api/v1/satellites/55781 · /tle

For live sub-satellite position, see the globe view (requires WebGL).

§ Visibility from observer

Set your observer location to see the next 7 days of passes ≥ 10°. The values pass through the URL so the page stays shareable.

No JS? Fill the form by hand. The geolocation button needs JavaScript.